x

Ilm3 - 27 Miles Se Of Wrightsville Beach, Nc (41037) Weather Station

6:08pm - Thu 26th May 2016 All times are EDT. -4 hours from GMT.

  • Wind
    11mph, 13mph gusts
  • Sea Temp 75°f
  • Air Temp 77°f
  • Sea Pressure 1020.8mb
  • Ilm3 - 27 Miles Se Of Wrightsville Beach, Nc
  • Ilm3 - 27 Miles Se Of Wrightsville Beach, Nc

More Historic Weather Station data

Upgrade to MSW Pro to gain access to the past 30 days of data for over 8000 Wavebouys and Weather Stations around the globe.

Join Pro

Comparision Forecast

View Surf forecast
   
Thu 05/26 6:08pm 11 13 mph 1020.8mb 75f 77f
5:08pm 9 11 mph 1021.4mb 75f 77f
4:08pm 7 11 mph 1021.3mb 75f 77f
3:08pm 9 11 mph 1021.5mb 75f 77f
2:08pm 7 9 mph 1022.6mb 75f 77f
12:08pm 7 9 mph 1022.9mb 74f 76f
11:08am 4 7 mph 1022.7mb 74f 76f
10:08am 7
mph
1023mb 74f 76f
9:08am 4
mph
1024mb 73f 76f
8:08am 4 7 mph 1023.5mb 73f 76f
7:08am 4 9 mph 1023.2mb 73f 75f
6:08am 7 11 mph 1022.3mb 73f 75f
5:08am 9 11 mph 1021.6mb 73f 75f
4:08am 9 13 mph 1021.8mb 73f 75f
3:08am 9 13 mph 1021.7mb 74f 75f
2:08am 9 13 mph 1022mb 74f 75f
1:08am 11 13 mph 1022.5mb 74f 75f
12:08am 9 13 mph 1022.6mb 74f 76f
Wed 05/25 11:08pm 9 11 mph 1023.1mb 74f 75f
10:08pm 9 11 mph 1023mb 74f 75f
9:08pm 9 11 mph 1022.2mb 74f 75f
8:08pm 9 13 mph 1021.6mb 74f 75f
7:08pm 9 13 mph 1021.6mb 74f 76f
6:08pm 11 13 mph 1022.9mb 74f 76f
5:08pm 9 13 mph 1022.9mb 74f 76f
4:08pm 9 11 mph 1022.7mb 74f 76f
3:08pm 9 11 mph 1022.7mb 74f 75f
2:08pm 9 11 mph 1023.1mb 74f 75f
1:08pm 7 9 mph 1024.5mb 74f 75f
12:08pm 7 9 mph 1024.5mb 74f 74f
11:08am 7 9 mph 1024mb 73f 74f
10:08am 7 9 mph 1023.9mb 73f 74f
9:08am 4 9 mph 1023.9mb 73f 73f
8:08am 7 11 mph 1023.8mb 73f 74f
7:08am 9 11 mph 1022.9mb 72f 73f
6:08am 11 13 mph 1022.3mb 73f 73f
5:08am 11 13 mph 1021.6mb 73f 73f
4:08am 11 16 mph 1021.3mb 73f 73f
3:08am 13 16 mph 1021.4mb 73f 73f
2:08am 13 18 mph 1020.9mb 73f 73f
1:08am 13 18 mph 1021.8mb 73f 73f
12:08am 11 16 mph 1021.7mb 73f 73f
Tue 05/24 11:08pm 11 16 mph 1021.3mb 73f 74f
10:08pm 13 18 mph 1021.1mb 73f 74f
9:08pm 13 18 mph 1020.2mb 73f 73f
8:08pm 13 18 mph 1019.6mb 73f 73f
7:08pm 16 20 mph 1019.2mb 73f 73f
6:08pm 18 22 mph 1019.6mb 73f 73f
5:08pm 18 25 mph 1020.3mb 73f 72f
4:08pm 18 22 mph 1020.6mb 73f 72f
3:08pm 16 20 mph 1020.5mb 73f 72f
2:08pm 7 9 mph 1020.3mb 73f 72f
1:08pm 7 9 mph 1020.5mb 73f 71f
12:08pm 7 9 mph 1021.1mb 73f 70f
11:08am 9 11 mph 1020.6mb 73f 69f
10:08am 9 13 mph 1020.3mb 73f 69f
9:08am 9 13 mph 1019.5mb 73f 68f
8:08am 4 9 mph 1019.3mb 72f 69f
7:08am 9 13 mph 1018.7mb 72f 67f
6:08am 9 13 mph 1017.5mb 72f 66f
5:08am 9 11 mph 1016.5mb 72f 66f
4:08am 9 13 mph 1016.1mb 72f 66f
3:08am 11 18 mph 1016.1mb 72f 66f
2:08am 11 18 mph 1016.4mb 72f 66f
1:08am 11 16 mph 1016.6mb 72f 66f
12:08am 11 18 mph 1017mb 72f 66f
Mon 05/23 11:08pm 11 16 mph 1016.2mb 73f 67f
10:08pm 13 18 mph 1015.5mb 73f 66f
9:08pm 13 18 mph 1015.2mb 73f 67f
8:08pm 13 20 mph 1014.4mb 73f 67f
7:08pm 13 20 mph 1013.7mb 73f 68f
6:08pm 16 20 mph 1012.8mb 73f 69f
5:08pm 16 20 mph 1012.7mb 73f 69f
4:08pm 16 20 mph 1013.6mb 73f 68f
3:08pm 13 18 mph 1013.5mb 73f 68f
2:08pm 16 22 mph 1013.1mb 73f 67f
1:08pm 13 18 mph 1012.8mb 73f 67f
12:08pm 11 18 mph 1012.8mb 73f 66f
11:08am 9 13 mph 1013.8mb 72f 65f
10:08am 9 13 mph 1013.2mb 72f 64f
9:08am 11 16 mph 1013.2mb 72f 64f
8:08am 11 16 mph 1012.7mb 72f 63f
7:08am 13 18 mph 1011.5mb 72f 64f
6:08am 16 20 mph 1011.3mb 72f 64f
5:08am 16 20 mph 1010.5mb 72f 65f
4:08am 13 18 mph 1010.1mb 73f 65f
3:08am 13 18 mph 1010.1mb 73f 65f
2:08am 13 18 mph 1010.4mb 73f 65f
1:08am 16 20 mph 1011.5mb 73f 66f
12:08am 16 22 mph 1011.4mb 73f 66f
Sun 05/22 11:08pm 16 20 mph 1011mb 73f 67f